Location: Hobi?a Gr?di?te
(45.4833°N, 22.7833°E)
Time: 11:11:24
(UTC+00:00)

CZ-4B R/B - Pass Details

Date: 28 January 2023
Orbit: 809 x 881 km, 99.0° (Epoch: 20 March)

Event Time Altitude Azimuth Distance (km) Brightness Sun altitude
Rises 17:27:30 0° 167° (SSE) 3,318 6.2 -20.7°
Reaches altitude 10° 17:29:48 10° 168° (SSE) 2,395 5.5 -21.1°
Maximum altitude 17:35:06 80° 256° (WSW) 839 3.2 -22.0°
Drops below altitude 10° 17:40:32 10° 343° (NNW) 2,447 5.8 -23.0°
Sets 17:42:55 0° 345° (NNW) 3,395 6.5 -23.4°
